Retour au catalogue

STARLINK-33772

ActifCommunicationsVLEO
NORAD 63656·PAYLOAD·🇺🇸 United States

Lancé Apr 25, 2025 depuis Cape Canaveral Space Force Station

Loading…

Prochains Passages (prochaines 24 heures)

TLE

FraisSource: CelesTrak SupGP

Époque: Sep 14, 2026, 20:51 UTC

1 63656C 25083Y   26257.86923611  .00040840  00000+0  14793-2 0  2570
2 63656  43.0022  16.7919 0001355 275.5266 302.8409 15.27556259    13

Suivez STARLINK-33772 en temps réel avec AllMySat

Download on the App Store